FW1436 Weather Reports


Display with metric or nautical units.
time (UTC)temp
F
wind
direction
speed
MPH
gust
MPH
rain 1hr
in
rain 24hr
in
rain mn
in
humidity
%
barometer
mb
20260508053113 48 61 0.0 0.0 0.00 0.00 0.00 87 1009.8
20260508051549 48 96 1.0 3.0 0.00 0.00 0.00 87 1009.8
20260508050048 48 85 0.0 2.0 0.00 0.00 0.00 87 1009.7
20260508044551 48 94 0.0 2.0 0.00 0.00 0.00 87 1009.5
20260508043047 48 122 0.0 2.0 0.00 0.00 0.00 87 1009.3
20260508041611 47 96 0.0 0.0 0.00 0.00 0.00 88 1009.1
20260508040105 47 96 0.0 0.0 0.00 0.00 0.00 87 1009.1
20260508034548 48 96 0.0 0.0 0.00 0.00 0.00 87 1009.0
20260508033045 47 95 0.0 0.0 0.00 0.00 0.00 88 1009.1
20260508031544 47 95 0.0 0.0 0.00 0.00 0.00 88 1009.1
20260508030044 46 95 0.0 0.0 0.00 0.00 0.00 88 1009.2
20260508024546 47 95 0.0 1.0 0.00 0.00 0.00 88 1009.1
20260508023041 47 48 0.0 1.0 0.00 0.00 0.00 88 1008.9
20260508021542 47 56 0.0 1.0 0.00 0.00 0.00 88 1009.1
20260508020045 47 53 0.0 1.0 0.00 0.00 0.00 88 1009.3
20260508014536 47 79 0.0 0.0 0.00 0.00 0.00 88 1009.8
20260508013034 46 79 0.0 0.0 0.00 0.00 0.00 88 1009.9
20260508011536 47 79 0.0 3.0 0.00 0.00 0.00 87 1009.7
20260508004532 47 119 0.0 5.0 0.00 0.00 0.00 87 1010.1
20260508003033 47 124 0.0 1.0 0.00 0.00 0.00 87 1010.3
20260508001526 47 112 0.0 0.0 0.00 0.00 0.00 86 1010.4
20260508000025 47 89 0.0 1.0 0.00 0.00 0.00 87 1010.3
20260507234522 48 91 0.0 1.0 0.00 0.00 0.00 86 1010.4
20260507233032 48 97 0.0 0.0 0.00 0.00 0.00 85 1010.8
20260507231519 48 63 0.0 0.0 0.00 0.00 0.00 85 1010.9
20260507230018 48 63 0.0 0.0 0.00 0.00 0.00 84 1010.9
20260507224521 48 63 0.0 1.0 0.00 0.00 0.00 85 1010.9
20260507223017 48 63 0.0 0.0 0.00 0.00 0.00 85 1010.9
20260507221520 48 63 0.0 0.0 0.00 0.00 0.00 85 1010.8
20260507220014 48 63 0.0 0.0 0.00 0.00 0.00 84 1010.8
20260507214513 49 63 0.0 1.0 0.00 0.00 0.00 83 1010.6
20260507213016 49 359 0.0 1.0 0.00 0.00 0.00 83 1010.5
20260507211510 49 103 0.0 1.0 0.00 0.00 0.00 86 1010.5
20260507210008 50 103 0.0 0.0 0.00 0.00 0.00 85 1010.3
20260507204505 51 103 0.0 0.0 0.00 0.00 0.00 83 1010.0
20260507203004 51 103 0.0 0.0 0.00 0.00 0.00 81 1009.7
20260507201504 52 102 0.0 0.0 0.00 0.00 0.00 81 1009.4
20260507200059 53 103 0.0 1.0 0.00 0.00 0.00 80 1009.2
20260507200006 53 103 0.0 1.0 0.00 0.00 0.00 79 1009.3
20260507194620 53 103 0.0 2.0 0.00 0.00 0.00 78 1008.8
20260507193058 54 91 0.0 2.0 0.00 0.00 0.00 77 1008.7
20260507191558 55 110 0.0 2.0 0.00 0.00 0.00 77 1008.5
20260507190058 56 91 0.0 1.0 0.00 0.00 0.00 73 1008.3
20260507184557 57 93 0.0 2.0 0.00 0.00 0.00 68 1008.0
20260507183056 58 107 0.0 3.0 0.00 0.00 0.00 67 1008.0
20260507181558 58 59 0.0 4.0 0.00 0.00 0.00 68 1007.9
20260507180055 58 94 0.0 5.0 0.00 0.00 0.00 71 1007.8
20260507174600 58 88 2.0 7.0 0.00 0.00 0.00 71 1007.7
20260507173132 57 124 1.0 5.0 0.00 0.00 0.00 71 1007.8
20260507171604 56 46 1.0 7.0 0.00 0.00 0.00 73 1007.8
20260507170110 55 37 3.0 7.0 0.00 0.00 0.00 80 1007.9
20260507164556 53 73 1.0 4.0 0.00 0.00 0.00 91 1007.9
20260507163050 51 12 0.0 4.0 0.00 0.00 0.00 93 1008.1
20260507161602 51 13 3.0 8.0 0.00 0.00 0.00 94 1007.7
20260507160050 51 51 1.0 5.0 0.00 0.00 0.00 93 1007.8
20260507154649 51 111 0.0 2.0 0.00 0.00 0.00 94 1007.7
20260507153055 51 115 0.0 1.0 0.00 0.00 0.00 94 1007.9
20260507151548 51 235 0.0 5.0 0.00 0.00 0.00 93 1008.2
20260507150052 51 108 0.0 3.0 0.00 0.00 0.00 93 1008.3
20260507144551 51 13 0.0 0.0 0.00 0.00 0.00 93 1008.4
20260507143047 50 74 1.0 5.0 0.00 0.00 0.00 93 1008.0
20260507141557 50 155 2.0 6.0 0.00 0.00 0.00 92 1008.0
20260507140043 50 108 2.0 6.0 0.00 0.00 0.00 91 1008.0
20260507134541 51 231 1.0 7.0 0.00 0.00 0.00 89 1008.1
20260507133036 52 134 5.0 11.0 0.00 0.00 0.00 84 1008.1
20260507131537 56 131 2.0 13.0 0.00 0.00 0.00 72 1007.9
20260507130033 59 172 3.0 10.0 0.00 0.00 0.00 63 1007.5
20260507124532 62 162 2.0 8.0 0.00 0.00 0.00 62 1007.2
20260507123037 61 127 2.0 5.0 0.00 0.00 0.00 63 1007.3
20260507121529 61 66 1.0 5.0 0.00 0.00 0.00 64 1007.2
20260507120040 61 319 2.0 4.0 0.00 0.00 0.00 63 1007.2
20260507114527 61 11 2.0 8.0 0.00 0.00 0.00 64 1007.4
20260507113037 61 56 1.0 6.0 0.00 0.00 0.00 65 1007.8
20260507111521 61 261 0.0 3.0 0.00 0.00 0.00 63 1008.1
20260507110020 61 96 0.0 2.0 0.00 0.00 0.00 65 1008.1
20260507104517 60 158 2.0 8.0 0.00 0.00 0.00 66 1008.3
20260507103012 59 108 1.0 7.0 0.00 0.00 0.00 68 1008.6
20260507101512 58 48 2.0 6.0 0.00 0.00 0.00 67 1008.9
20260507100015 58 52 1.0 7.0 0.00 0.00 0.00 69 1009.0
20260507094509 57 108 3.0 8.0 0.00 0.00 0.00 69 1009.0
20260507093009 56 145 1.0 7.0 0.00 0.00 0.00 69 1009.0
20260507091501 57 96 1.0 8.0 0.00 0.00 0.00 71 1009.0
20260507090058 56 75 3.0 7.0 0.00 0.00 0.00 72 1009.0
20260507084602 56 59 2.0 9.0 0.00 0.00 0.00 72 1008.8
20260507083052 55 58 2.0 7.0 0.00 0.00 0.00 73 1008.8
20260507081551 55 63 1.0 7.0 0.00 0.00 0.00 74 1008.8
20260507080049 54 70 2.0 6.0 0.00 0.00 0.00 74 1008.9
20260507074551 54 37 1.0 5.0 0.00 0.00 0.00 75 1008.9
20260507073107 54 97 2.0 5.0 0.00 0.00 0.00 75 1008.8
20260507071543 53 98 2.0 5.0 0.00 0.00 0.00 75 1008.9
20260507070043 53 97 1.0 4.0 0.00 0.00 0.00 75 1009.0
20260507064546 53 9 1.0 4.0 0.00 0.00 0.00 75 1008.9
20260507063047 53 96 0.0 4.0 0.00 0.00 0.00 75 1008.9
20260507061541 53 100 0.0 5.0 0.00 0.00 0.00 74 1008.7
20260507060037 53 110 0.0 5.0 0.00 0.00 0.00 74 1008.6
20260507054537 53 91 2.0 7.0 0.00 0.00 0.00 73 1008.4